Details From DNKA - KADUNA
To DNSO - SADIQ ABUBAKAR III INTL
Flight Number -
Tags generated
Created
Modified
Stats Distance 221 nm / 410 km
Max Altitude 16,900 ft / 5,151 m
Waypoints 4
Social Downloads 2
Likes 0
Share

Download

Looking for another format? Having issues loading an existing format? Contact us
Advertisement - Login to hide

Notes

Basic altitude profile: - Ascent Rate: 500ft/min - Ascent Speed: 140kts - Cruise Altitude: 10000ft - Cruise Speed: 180kts - Descent Rate: 500ft/min - Descent Speed: 140kts Options: - Use NATs: yes - Use PACOTS: yes - Use low airways: yes - Use high airways: yes

Route

DNKA KINDO V224 SOK DNSO

ID Type Via Altitude (ft/m) Position (lat/lon) Dist (leg/tot) Name
O DNKA APT - 0 / 0 10.69587 / 7.32014 - / 0 nm KADUNA
KINDO FIX - 16,900 / 5,151 10.37347 / 6.58592 47 / 47 nm
SOK VOR V224 (AWY-LO) 5,500 / 1,676 12.92109 / 5.22931 172 / 220 nm SOKOTO VOR-DME
O DNSO APT - 0 / 0 12.91590 / 5.20689 1 / 221 nm SADIQ ABUBAKAR III INTL

Altitude Profile

Advertisement - Login to hide

Weather


0- 5 10 15 20 25 30 35+ Temperature / °C

Clouds and Precipitation
Forecast for 2021-03-22 12:00 UTC. Updated a month ago

Ground ~20,000 ft ~40,000 ft Winds

DNKA

Details ICAO DNKA (KAD)
Name KADUNA
Region Nigeria
Timezone Africa/Lagos (UTC+1.0)
Stats Elevation 2,073 ft / 632 m (AMSL)
Location 10.695900° 7.320140°
Runways 1
Magnetic Variation 0.214° W

METAR

Not found

TAF

TAF DNKA 200500Z 2006/2112 24005KT CAVOK TEMPO 2008/2013 18010KT TEMPO 2013/2018 BKN013

Decode

Departure Runways

ID Width Length Bearing (true/mag) Surface Threshold Overrun Markings Lighting
05 197 ft / 60 m 9,860 ft / 3,005 m 49.54° / 49.75° ASPHALT 0 ft / 0 m 390 ft / 119 m PREC-APP CENTERLINE EDGE THRESHOLD ALSF-II TDZ
23 197 ft / 60 m 9,860 ft / 3,005 m 229.54° / 229.76° ASPHALT 0 ft / 0 m 390 ft / 119 m APP CENTERLINE EDGE THRESHOLD ALSF-II TDZ

DNSO

Details ICAO DNSO (SKO)
Name Saddiq Abubakar III Intl
Region Nigeria
Timezone Africa/Lagos (UTC+1.0)
Stats Elevation 1,010 ft / 308 m (AMSL)
Location 12.915900° 5.206900°
Runways 1
Magnetic Variation 0.338° W

METAR

Not found

TAF

TAF DNSO 201100Z 2012/2118 27007KT CAVOK

Decode

Destination Runways

ID Width Length Bearing (true/mag) Surface Threshold Overrun Markings Lighting
08 198 ft / 60 m 9,834 ft / 2,997 m 76.57° / 76.91° ASPHALT 0 ft / 0 m 390 ft / 119 m PREC-APP CENTERLINE EDGE THRESHOLD ALSF-II TDZ
26 198 ft / 60 m 9,834 ft / 2,997 m 256.58° / 256.92° ASPHALT 0 ft / 0 m 390 ft / 119 m PREC-APP CENTERLINE EDGE THRESHOLD ALSF-II TDZ

Approach Navaids

Runway Type Ident Frequency Range Bearing (true/mag) Slope Elevation
08 LOC-ILS ISK 109.50 MHz 18 nm / 33 km 76.58° / 76.92 ° - 1,010 ft / 308 m (AMSL)
08 GS ISK 109.50 MHz 10 nm / 19 km 76.58° / 76.92 ° 3.10° 1,010 ft / 308 m (AMSL)
08 DME ISK 109.50 MHz 18 nm / 33 km - - 1,010 ft / 308 m (AMSL)

Popular Alternatives